#timestamp,LO_Frequency,Hit,StdDev 
1562626815.4,286046999.9,N
1562626835.2,286047000.7,N
1562626855.1,286046998.5,N
1562626856.0,286046998.5,N
1562626875.8,286046998.9,N
1562626895.7,286046998.3,N
1562626915.5,286046998.6,N
1562626935.3,286047000.8,N
1562626955.2,286047001.1,N
1562626975.0,286046998.7,N
1562626975.9,286046998.7,N
1562626995.7,286046999.6,N
1562627015.6,286046997.1,N
1562627035.4,286046999.0,N
1562627055.3,286047002.8,N
1562627075.1,286047000.6,N
1562627076.0,286047000.6,N
1562627095.8,286046996.9,N
1562627115.7,286046998.4,N
1562627135.5,286046999.0,N
1562627155.4,286046999.2,N
1562627175.2,286046999.5,N
1562627195.0,286046999.5,N
1562627195.9,286046999.5,N
1562627215.8,286046996.7,N
1562627235.6,286046997.0,N
1562627255.4,286046997.8,N
1562627275.3,286046997.9,N
1562627295.1,286046997.8,N
1562627315.9,286046996.5,N
1562627335.7,286046997.2,N
1562627355.5,286046997.5,N
1562627375.4,286046997.2,N
1562627395.2,286046996.7,N
1562627415.1,286046997.3,N
1562627416.0,286046997.3,N
1562627435.8,286046997.1,N
1562627455.6,286046997.0,N
1562627475.5,286046997.9,N
1562627495.3,286046997.2,N
1562627515.1,286046997.2,N
1562627535.9,286046999.6,N
1562627555.7,286046997.5,N
1562627575.6,286046997.8,N
1562627595.4,286046997.5,N
1562627615.2,286046996.8,N
1562627635.1,286046999.5,N
1562627636.0,286046999.5,N
1562627655.8,286046999.0,N
1562627675.7,286046999.2,N
1562627695.5,286047000.7,N
1562627715.3,286047000.7,N
1562627735.2,286047000.8,N
1562627755.0,286047002.3,N
1562627755.9,286047002.3,N
1562627775.8,286047002.8,N
1562627795.6,286047000.2,N
1562627815.4,286047002.8,N
1562627835.3,286047000.5,N
1562627855.1,286046999.7,N
1562627875.8,286047002.6,N
1562627895.7,286047000.6,N
1562627915.5,286047000.7,N
1562627935.4,286047000.3,N
1562627955.2,286046999.9,N
1562627975.0,286047002.7,N
1562627975.9,286047002.7,N
1562627995.8,286047000.4,N
1562628015.6,286047001.8,N
1562628035.5,286047002.6,N
1562628055.3,286047001.6,N
1562628075.1,286047002.5,N
1562628095.9,286047002.8,N
1562628115.7,286047002.4,N
1562628135.6,286047001.9,N
1562628155.4,286047002.4,N
1562628175.2,286047002.4,N
1562628195.1,286047000.4,N
1562628196.0,286047000.4,N
1562628215.8,286047002.6,N
1562628235.7,286047003.2,Y
1562628255.5,286047001.6,P
1562628275.3,286047002.5,P
1562628295.2,286047002.5,P
1562628315.0,286047001.3,N
1562628315.9,286047001.3,N
1562628335.7,286047001.9,Y
1562628355.6,286046999.1,P
1562628375.4,286046997.2,N
1562628395.3,286046998.7,N
1562628415.1,286046998.4,N
1562628435.8,286047000.7,N
1562628455.7,286047001.1,N
1562628475.5,286046999.7,N
1562628495.4,286046999.8,N
1562628515.2,286047001.0,N
1562628535.0,286046998.3,N
1562628535.9,286046998.3,N
1562628555.8,286047001.1,N
1562628575.6,286047000.5,N
1562628595.4,286047000.5,N
1562628615.3,286046996.5,N
1562628635.1,286046998.6,N
1562628655.9,286046999.5,N
1562628675.7,286046999.3,N
1562628695.5,286047000.9,N
1562628715.4,286046999.0,N
1562628735.2,286047000.0,N
1562628755.1,286047000.0,N
1562628756.0,286047000.0,N
1562628775.8,286047001.1,N
1562628795.6,286047002.7,N
1562628815.5,286047002.5,N
1562628835.3,286047000.3,N
1562628855.2,286046998.4,N
1562628875.9,286046998.7,N
1562628895.7,286047001.2,N
1562628915.6,286046999.6,N
1562628935.4,286046999.2,N
1562628955.2,286046998.1,N
1562628975.1,286047000.0,N
1562628976.0,286047000.0,N
1562628995.8,286046999.9,N
1562629015.7,286047002.1,N
1562629035.5,286047000.6,N
1562629055.3,286046998.4,N
1562629075.2,286047000.5,N
1562629095.0,286047001.1,N
1562629095.9,286047001.1,N
1562629115.8,286047000.5,N
1562629135.6,286046998.3,N
1562629155.4,286046998.7,N
1562629175.3,286046998.5,N
1562629195.1,286046998.9,N
1562629215.8,286046998.6,N
1562629235.3,286046998.7,N
1562629255.2,286047000.8,N
1562629275.0,286046998.5,N
1562629275.9,286046998.5,N
1562629295.8,286046998.2,N
1562629315.6,286046998.1,N
1562629335.4,286047000.3,N
1562629355.3,286046999.8,N
1562629375.1,286047002.2,N
1562629395.9,286047001.0,N
1562629415.7,286047001.2,N
1562629435.5,286046998.5,N
1562629455.4,286047001.2,N
1562629475.2,286047000.4,N
1562629495.0,286047001.0,N
1562629495.9,286047001.0,N
1562629515.8,286047002.7,N
1562629535.6,286047001.1,N
1562629555.5,286047000.5,N
1562629575.3,286047000.7,N
1562629595.1,286047000.9,N
1562629615.9,286047000.7,N
1562629635.7,286047000.6,N
1562629655.6,286047000.2,N
1562629675.4,286047002.3,N
1562629695.2,286047000.6,N
1562629715.1,286047000.5,N
1562629716.0,286047000.5,N
1562629735.8,286047000.6,N
1562629755.6,286047000.7,N
1562629775.5,286046999.4,N
1562629795.3,286046998.6,N
1562629815.2,286047001.2,N
1562629835.9,286046998.9,N
1562629855.7,286046999.5,N
1562629875.6,286046999.5,N
1562629895.4,286046996.9,Y
1562629915.3,286046997.8,P
1562629935.1,286046996.0,N
1562629955.9,286046997.9,N
1562629975.7,286046997.1,N
1562629995.5,286046998.0,N
1562630015.4,286046996.8,N
1562630035.2,286046997.2,N
1562630055.0,286046997.9,N
1562630055.9,286046997.9,N
1562630075.8,286046996.7,N
1562630095.6,286046997.5,N
1562630115.5,286046995.5,Y
1562630135.3,286046996.6,P
1562630155.1,286046997.6,P
1562630175.9,286046997.0,P
1562630195.7,286046997.7,Y
1562630215.6,286047000.0,P
1562630235.4,286047002.3,N
1562630255.2,286047001.5,N
1562630275.1,286047001.6,N
1562630276.0,286047001.6,N
1562630295.8,286047001.4,N
1562630315.7,286047001.6,N
1562630335.5,286047001.7,N
1562630355.3,286047000.7,N
1562630375.2,286047000.7,N
1562630395.0,286046998.1,N
1562630395.9,286046998.1,N
